Location: Banios
(43.0451°N, 0.2335°E)
Time: 13:35:27
(UTC+00:00)

Explorer 11/Cluster Stage 4 - Visible Passes

Search period start: 13 May 2021 00:00
Search period end: 23 May 2021 00:00
Orbit: 467 x 1257 km, 28.8° (Epoch: 12 May)

Date Brightness Start Highest point End Pass type
(mag) Time Alt. Az. Time Alt. Az. Time Alt. Az.
13 May 8.4 20:45:57 10° SW 20:52:24 26° S 20:55:05 22° SE visible
13 May 8.9 22:34:11 10° WSW 22:37:14 20° SW 22:37:14 20° SW visible
14 May 8.4 20:34:30 10° SW 20:41:03 27° S 20:44:53 19° SE visible
14 May 8.7 22:22:49 10° WSW 22:27:00 23° SW 22:27:00 23° SW visible
15 May 8.4 20:23:06 10° SW 20:29:42 28° S 20:34:31 16° SE visible
15 May 8.5 22:11:31 10° WSW 22:16:38 25° SSW 22:16:38 25° SSW visible
16 May 8.4 20:11:46 10° SW 20:18:21 28° S 20:24:02 13° SE visible
16 May 8.5 22:00:14 10° WSW 22:06:09 26° SSW 22:06:09 26° SSW visible
17 May 8.4 20:00:29 10° SW 20:07:00 29° S 20:13:28 11° ESE visible
17 May 8.5 21:49:01 10° WSW 21:55:21 25° SSW 21:55:34 25° S visible
18 May 8.5 19:49:16 10° SW 19:55:41 28° S 20:02:25 10° ESE visible
18 May 8.5 21:37:50 10° WSW 21:44:00 24° SSW 21:44:56 23° S visible
19 May 8.6 21:26:44 10° WSW 21:32:39 23° SSW 21:34:14 21° S visible
20 May 8.7 21:15:41 10° WSW 21:21:17 21° SSW 21:23:32 19° S visible
21 May 8.9 21:04:44 10° WSW 21:09:57 19° SSW 21:12:48 16° S visible
22 May 9.0 20:53:53 10° WSW 20:58:36 17° SSW 21:02:05 13° S visible
